This is the latest recevied weather packets stored in our database for station/object DB8NZ-22. If no packets are shown the sender has not sent any weather packets the latest 10 day(s).
| Time | Temp. | Humidity | Pressure | Rain* | Wind** | Luminosity | Snow |
|---|---|---|---|---|---|---|---|
| 1777868863 | 12.78° C | 49% | 1015 hPa | - | - | - | - |
| 1777867963 | 13.33° C | 49% | 1015 hPa | - | - | - | - |
| 1777867063 | 13.33° C | 50% | 1015 hPa | - | - | - | - |
| 1777866162 | 13.89° C | 47% | 1015 hPa | - | - | - | - |
| 1777865262 | 14.44° C | 47% | 1015 hPa | - | - | - | - |
| 1777864362 | 14.44° C | 47% | 1015 hPa | - | - | - | - |
| 1777863462 | 15° C | 46% | 1015.1 hPa | - | - | - | - |
| 1777860762 | 16.11° C | 43% | 1014.8 hPa | - | - | - | - |
| 1777859862 | 16.11° C | 43% | 1014.9 hPa | - | - | - | - |
| 1777858962 | 16.11° C | 43% | 1015 hPa | - | - | - | - |
| 1777858062 | 16.67° C | 43% | 1015 hPa | - | - | - | - |
| 1777857162 | 16.67° C | 43% | 1014.9 hPa | - | - | - | - |
| 1777856261 | 17.22° C | 42% | 1014.7 hPa | - | - | - | - |
| 1777855361 | 17.22° C | 42% | 1014.9 hPa | - | - | - | - |
| 1777854461 | 17.78° C | 40% | 1014.9 hPa | - | - | - | - |
| 1777853561 | 18.33° C | 38% | 1014.9 hPa | - | - | - | - |
| 1777852661 | 18.33° C | 37% | 1015 hPa | - | - | - | - |
| 1777851761 | 18.33° C | 37% | 1015.1 hPa | - | - | - | - |
| 1777850861 | 18.33° C | 36% | 1015.1 hPa | - | - | - | - |
| 1777849961 | 18.89° C | 36% | 1015 hPa | - | - | - | - |
| 1777849061 | 18.89° C | 36% | 1014.9 hPa | - | - | - | - |
| 1777848160 | 19.44° C | 35% | 1014.9 hPa | - | - | - | - |
| 1777847662 | 19.44° C | 34% | 1014.9 hPa | - | - | - | - |
| 1777846762 | 20° C | 33% | 1014.9 hPa | - | - | - | - |
| 1777845862 | 20° C | 33% | 1014.7 hPa | - | - | - | - |
* Rain since midnight (hover to see other rain measurements)
** Current wind speed in m/s (hover to see current wind gust speed)